DW9280 Weather Reports


time (UTC)temp
C
wind
direction
speed
KPH
gust
KPH
rain 1hr
cm
rain 24hr
cm
rain mn
cm
humidity
%
barometer
mb
20260503021302 13 134 0.0 4.8 0.00 0.58 0.58 94 1011.4
20260503021111 13 134 0.0 4.8 0.00 0.58 0.58 94 1011.4
20260503021011 13 134 0.0 4.8 0.00 0.58 0.58 94 1011.4
20260503020303 13 134 0.0 4.8 0.00 0.58 0.58 94 1011.5
20260503020011 13 135 1.6 6.4 0.00 0.58 0.58 94 1011.4
20260503015251 13 136 1.6 6.4 0.00 0.58 0.58 94 1011.5
20260503014751 13 101 0.0 4.8 0.00 0.58 0.58 94 1011.5
20260503014350 12 100 0.0 3.2 0.00 0.58 0.58 94 1011.4
20260503014329 12 101 0.0 4.8 0.00 0.58 0.58 94 1011.4
20260503013952 12 100 0.0 3.2 0.00 0.58 0.58 94 1011.4
20260503013239 12 100 1.6 6.4 0.00 0.58 0.58 94 1011.3
20260503012843 12 84 1.6 9.7 0.00 0.58 0.58 93 1011.4
20260503012817 12 100 1.6 6.4 0.00 0.58 0.58 94 1011.2
20260503012440 12 84 1.6 9.7 0.00 0.58 0.58 93 1011.4
20260503011826 12 111 1.6 4.8 0.00 0.58 0.58 93 1011.6
20260503011803 12 96 0.0 9.7 0.00 0.58 0.58 93 1011.5
20260503011441 12 111 1.6 4.8 0.00 0.58 0.58 93 1011.6
20260503011029 12 110 1.6 4.8 0.00 0.58 0.58 93 1011.7
20260503010942 12 110 1.6 4.8 0.00 0.58 0.58 93 1011.7
20260503010231 12 111 1.6 6.4 0.00 0.58 0.58 93 1011.7
20260503010028 12 98 1.6 8.0 0.00 0.58 0.58 93 1011.7
20260503005940 12 98 1.6 8.0 0.00 0.58 0.58 93 1011.7
20260503005231 12 127 1.6 8.0 0.00 0.58 0.58 93 1011.8
20260503004732 12 94 1.6 6.4 0.00 0.58 0.58 93 1012.0
20260503004233 12 108 1.6 6.4 0.00 0.58 0.58 93 1011.9
20260503004027 12 90 1.6 4.8 0.03 0.58 0.58 93 1012.0
20260503003939 12 90 1.6 4.8 0.03 0.58 0.58 93 1012.0
20260503003529 13 117 1.6 6.4 0.03 0.58 0.58 93 1012.1
20260503003440 13 117 1.6 6.4 0.03 0.58 0.58 93 1012.1
20260503002730 13 93 1.6 9.7 0.05 0.58 0.58 93 1012.1
20260503002232 13 125 1.6 9.7 0.10 0.58 0.58 92 1012.2
20260503001731 13 52 1.6 6.4 0.15 0.58 0.58 93 1012.0
20260503001232 13 107 1.6 11.3 0.23 0.58 0.58 92 1012.2
20260503000732 13 119 1.6 11.3 0.30 0.58 0.58 92 1012.2
20260503000230 13 131 3.2 11.3 0.33 0.58 0.58 92 1012.4
20260502235729 13 104 4.8 14.5 0.41 0.58 0.58 92 1012.2
20260502235523 13 44 6.4 19.3 0.43 0.58 0.58 91 1012.1
20260502235434 13 44 6.4 19.3 0.43 0.58 0.58 91 1012.1
20260502234723 13 50 8.0 20.9 0.46 0.58 0.58 91 1012.0
20260502234520 13 19 6.4 20.9 0.53 0.58 0.58 91 1012.1
20260502234431 13 19 6.4 20.9 0.53 0.58 0.58 91 1012.1
20260502233721 13 47 4.8 12.9 0.56 0.56 0.56 90 1012.3
20260502233219 13 51 6.4 19.3 0.56 0.56 0.53 90 1012.6
20260502232718 13 28 8.0 19.3 0.51 0.51 0.51 90 1012.7
20260502232214 13 22 4.8 12.9 0.48 0.48 0.46 89 1012.8
20260502231712 14 22 3.2 11.3 0.41 0.41 0.41 89 1013.2
20260502231210 14 347 1.6 4.8 0.33 0.33 0.33 88 1013.6
20260502230709 14 283 0.0 1.6 0.28 0.28 0.25 88 1013.9
20260502230205 14 283 0.0 3.2 0.23 0.23 0.23 87 1014.0
20260502225704 14 283 0.0 3.2 0.18 0.18 0.18 86 1014.2
20260502225204 15 275 0.0 3.2 0.15 0.15 0.15 85 1014.3
20260502224703 15 275 0.0 6.4 0.13 0.13 0.13 84 1014.3
20260502224207 15 275 1.6 6.4 0.03 0.03 0.03 82 1014.5
20260502223701 15 221 1.6 12.9 0.00 0.00 0.00 82 1014.6
20260502223202 15 171 3.2 12.9 0.00 0.00 0.00 82 1015.0
20260502222702 15 263 4.8 14.5 0.00 0.00 0.00 82 1015.0
20260502222202 15 158 3.2 14.5 0.00 0.00 0.00 82 1014.9
20260502221705 15 103 3.2 8.0 0.00 0.00 0.00 81 1015.0
20260502221205 15 301 3.2 6.4 0.00 0.00 0.00 81 1013.8
20260502220704 15 344 3.2 8.0 0.00 0.00 0.00 81 1013.7
20260502220202 15 325 1.6 8.0 0.00 0.00 0.00 81 1013.8
20260502215703 15 5 1.6 6.4 0.00 0.00 0.00 81 1013.8
20260502215204 15 57 1.6 6.4 0.00 0.00 0.00 81 1013.8
20260502214704 14 59 1.6 6.4 0.00 0.00 0.00 82 1013.7
20260502214205 14 96 1.6 6.4 0.00 0.00 0.00 83 1013.7
20260502213703 14 104 1.6 11.3 0.00 0.00 0.00 84 1013.9
20260502213201 14 64 3.2 11.3 0.00 0.00 0.00 85 1013.6
20260502212702 14 91 3.2 11.3 0.00 0.00 0.00 86 1013.9
20260502212203 14 59 1.6 8.0 0.00 0.00 0.00 86 1013.4
20260502211703 14 36 1.6 6.4 0.00 0.00 0.00 86 1013.4
20260502211201 14 36 1.6 6.4 0.00 0.00 0.00 86 1013.3
20260502210705 14 34 1.6 6.4 0.00 0.00 0.00 87 1013.3
20260502210201 14 22 1.6 6.4 0.00 0.00 0.00 87 1013.4
20260502205706 14 28 1.6 6.4 0.00 0.00 0.00 87 1013.6
20260502205202 14 29 1.6 4.8 0.00 0.00 0.00 87 1013.7
20260502204703 14 29 1.6 6.4 0.00 0.00 0.00 86 1013.7
20260502204202 14 30 3.2 8.0 0.00 0.00 0.00 86 1013.7
20260502203702 14 39 3.2 8.0 0.00 0.00 0.00 86 1013.8
20260502203459 14 23 1.6 8.0 0.00 0.00 0.00 86 1013.9
20260502203412 14 23 1.6 8.0 0.00 0.00 0.00 86 1013.9
20260502202701 14 38 3.2 8.0 0.00 0.00 0.00 85 1014.0
20260502202516 14 24 3.2 9.7 0.00 0.00 0.00 85 1014.1
20260502202412 14 24 3.2 9.7 0.00 0.00 0.00 85 1014.1
20260502201704 14 19 3.2 9.7 0.00 0.00 0.00 84 1014.0
20260502201203 14 13 3.2 9.7 0.00 0.00 0.00 83 1014.1
20260502200703 15 44 3.2 9.7 0.00 0.00 0.00 83 1014.3
20260502200459 15 32 4.8 9.7 0.00 0.00 0.00 82 1014.4
20260502200412 15 32 4.8 9.7 0.00 0.00 0.00 82 1014.4
20260502195705 15 26 4.8 12.9 0.00 0.00 0.00 80 1014.4
20260502195457 15 49 4.8 12.9 0.00 0.00 0.00 78 1014.4
20260502195410 15 49 4.8 12.9 0.00 0.00 0.00 78 1014.4
20260502194806 15 15 3.2 9.7 0.00 0.00 0.00 73 1014.4
20260502194740 15 40 4.8 12.9 0.00 0.00 0.00 76 1014.5
20260502194412 15 15 3.2 9.7 0.00 0.00 0.00 73 1014.4
20260502193702 15 0 3.2 8.0 0.00 0.00 0.00 70 1014.3
20260502193203 15 18 1.6 6.4 0.00 0.00 0.00 69 1014.4
20260502192702 16 355 1.6 4.8 0.00 0.00 0.00 68 1014.4
20260502192209 16 355 1.6 4.8 0.00 0.00 0.00 68 1014.4
20260502191704 16 355 3.2 8.0 0.00 0.00 0.00 67 1014.5
20260502191202 16 345 3.2 8.0 0.00 0.00 0.00 66 1014.4
20260502190704 16 355 1.6 6.4 0.00 0.00 0.00 66 1014.4
20260502190204 16 11 1.6 6.4 0.00 0.00 0.00 66 1014.4
20260502185703 16 11 1.6 6.4 0.00 0.00 0.00 65 1014.3
20260502185459 16 11 1.6 6.4 0.00 0.00 0.00 64 1014.4
20260502185412 16 11 1.6 6.4 0.00 0.00 0.00 64 1014.4
20260502184702 16 11 1.6 6.4 0.00 0.00 0.00 64 1014.3
20260502184205 16 13 3.2 6.4 0.00 0.00 0.00 64 1014.4
20260502183702 16 5 3.2 6.4 0.00 0.00 0.00 65 1014.3
20260502183459 16 355 3.2 9.7 0.00 0.00 0.00 65 1014.4
20260502183410 16 355 3.2 9.7 0.00 0.00 0.00 65 1014.4
20260502182703 17 338 3.2 12.9 0.00 0.00 0.00 64 1014.3
20260502182207 17 0 4.8 12.9 0.00 0.00 0.00 64 1014.3
20260502181702 17 10 3.2 12.9 0.00 0.00 0.00 64 1014.3
20260502181205 17 340 3.2 12.9 0.00 0.00 0.00 64 1014.3
20260502180701 17 350 4.8 12.9 0.00 0.00 0.00 64 1014.3
20260502180204 17 334 6.4 14.5 0.00 0.00 0.00 63 1014.4
20260502170205 19 324 8.0 16.1 0.00 0.00 0.00 60 1014.9
20260502163810 20 339 6.4 16.1 0.00 0.00 0.00 60 1015.1
20260502163743 20 5 6.4 17.7 0.00 0.00 0.00 59 1015.2
20260502163413 20 339 6.4 16.1 0.00 0.00 0.00 60 1015.1
20260502162702 21 15 6.4 17.7 0.00 0.00 0.00 59 1015.2
20260502162456 21 287 8.0 17.7 0.00 0.00 0.00 60 1015.2
20260502162411 21 287 8.0 17.7 0.00 0.00 0.00 60 1015.2
20260502161703 21 338 6.4 16.1 0.00 0.00 0.00 61 1015.2
20260502161203 21 297 8.0 16.1 0.00 0.00 0.00 61 1015.1
20260502160957 21 355 6.4 17.7 0.00 0.00 0.00 61 1015.2
20260502160910 21 355 6.4 17.7 0.00 0.00 0.00 61 1015.2
20260502160204 21 5 8.0 19.3 0.00 0.00 0.00 60 1015.1
20260502152016 23 342 3.2 16.1 0.00 0.00 0.00 55 1015.4
20260502151911 23 342 3.2 16.1 0.00 0.00 0.00 55 1015.4
20260502151204 23 296 3.2 11.3 0.00 0.00 0.00 56 1015.5
20260502151157 23 281 3.2 11.3 0.00 0.00 0.00 56 1015.5
20260502150705 23 138 3.2 12.9 0.00 0.00 0.00 58 1015.6
20260502150658 23 138 3.2 12.9 0.00 0.00 0.00 58 1015.6
20260502150206 23 161 3.2 12.9 0.00 0.00 0.00 57 1015.7
20260502150157 23 161 3.2 12.9 0.00 0.00 0.00 57 1015.7
20260502130205 22 175 4.8 12.9 0.00 0.00 0.00 64 1016.7
20260502130107 22 188 4.8 12.9 0.00 0.00 0.00 64 1016.8
20260502123702 22 184 6.4 22.5 0.00 0.00 0.00 66 1016.9
20260502123540 22 210 4.8 22.5 0.00 0.00 0.00 66 1017.0
20260502123203 21 276 4.8 20.9 0.00 0.00 0.00 67 1017.1
20260502123036 21 254 4.8 20.9 0.00 0.00 0.00 67 1017.0
20260502122704 21 148 4.8 16.1 0.00 0.00 0.00 67 1017.0
20260502122534 21 209 4.8 16.1 0.00 0.00 0.00 67 1017.1
20260502122203 21 158 4.8 16.1 0.00 0.00 0.00 67 1017.1
20260502122033 21 258 4.8 16.1 0.00 0.00 0.00 67 1017.1
20260502121703 21 253 4.8 16.1 0.00 0.00 0.00 67 1017.2
20260502121535 21 126 4.8 16.1 0.00 0.00 0.00 67 1017.2
20260502121203 21 117 4.8 20.9 0.00 0.00 0.00 66 1017.2
20260502121034 21 148 4.8 20.9 0.00 0.00 0.00 66 1017.2
20260502120831 21 141 4.8 20.9 0.00 0.00 0.00 65 1017.2
20260502120803 21 167 4.8 20.9 0.00 0.00 0.00 66 1017.2
20260502120419 22 202 4.8 17.7 0.00 0.00 0.00 63 1017.2
20260502120413 22 142 3.2 17.7 0.00 0.00 0.00 64 1017.1
20260502120336 22 187 4.8 17.7 0.00 0.00 0.00 65 1017.2
20260502115802 22 278 4.8 17.7 0.00 0.00 0.00 64 1017.1
20260502115202 22 250 3.2 12.9 0.00 0.00 0.00 63 1017.2
20260502115031 22 165 3.2 12.9 0.00 0.00 0.00 63 1017.2
20260502114703 22 159 3.2 12.9 0.00 0.00 0.00 63 1017.3
20260502114531 22 167 3.2 12.9 0.00 0.00 0.00 64 1017.2
20260502114323 22 90 4.8 14.5 0.00 0.00 0.00 64 1017.3
20260502114259 22 198 4.8 14.5 0.00 0.00 0.00 64 1017.3
20260502113703 22 132 4.8 14.5 0.00 0.00 0.00 63 1017.4
20260502113531 22 151 4.8 14.5 0.00 0.00 0.00 63 1017.4
20260502113202 22 151 6.4 16.1 0.00 0.00 0.00 64 1017.4
20260502113031 22 311 4.8 16.1 0.00 0.00 0.00 64 1017.4
20260502112704 22 182 4.8 16.1 0.00 0.00 0.00 64 1017.4
20260502112531 22 200 4.8 16.1 0.00 0.00 0.00 64 1017.3
20260502112202 22 254 4.8 16.1 0.00 0.00 0.00 64 1017.4
20260502112031 22 153 4.8 16.1 0.00 0.00 0.00 63 1017.4
20260502111704 22 244 4.8 16.1 0.00 0.00 0.00 64 1017.5
20260502111532 22 165 4.8 16.1 0.00 0.00 0.00 63 1017.4
20260502111202 22 117 4.8 14.5 0.00 0.00 0.00 63 1017.5
20260502111033 22 274 4.8 16.1 0.00 0.00 0.00 63 1017.5
20260502110701 22 153 4.8 16.1 0.00 0.00 0.00 63 1017.5
20260502110532 22 140 4.8 16.1 0.00 0.00 0.00 62 1017.5
20260502110203 22 247 4.8 16.1 0.00 0.00 0.00 63 1017.6
20260502110028 22 172 4.8 12.9 0.00 0.00 0.00 63 1017.6
20260502105704 22 173 4.8 16.1 0.00 0.00 0.00 64 1017.6
20260502105526 22 224 4.8 16.1 0.00 0.00 0.00 64 1017.7
20260502105205 21 141 4.8 16.1 0.00 0.00 0.00 64 1017.6
20260502105025 21 162 4.8 16.1 0.00 0.00 0.00 64 1017.6
20260502104702 21 153 4.8 14.5 0.00 0.00 0.00 66 1017.7
20260502104530 21 162 4.8 14.5 0.00 0.00 0.00 66 1017.7
20260502104203 21 157 4.8 16.1 0.00 0.00 0.00 65 1017.6
20260502104016 21 184 6.4 16.1 0.00 0.00 0.00 65 1017.7
20260502103703 21 240 4.8 20.9 0.00 0.00 0.00 65 1017.7
20260502103514 21 348 4.8 20.9 0.00 0.00 0.00 65 1017.7
20260502103305 21 252 4.8 20.9 0.00 0.00 0.00 65 1017.8
20260502103245 21 128 4.8 20.9 0.00 0.00 0.00 65 1017.8
20260502102703 21 164 4.8 12.9 0.00 0.00 0.00 65 1017.7
20260502102510 21 146 4.8 17.7 0.00 0.00 0.00 66 1017.7
20260502102204 21 135 6.4 17.7 0.00 0.00 0.00 66 1017.8
20260502102010 21 178 6.4 17.7 0.00 0.00 0.00 66 1017.8
20260502101703 20 163 6.4 17.7 0.00 0.00 0.00 66 1017.9
20260502101508 21 184 4.8 14.5 0.00 0.00 0.00 66 1017.9
20260502101203 21 190 4.8 12.9 0.00 0.00 0.00 66 1017.8
20260502101008 21 355 3.2 12.9 0.00 0.00 0.00 66 1017.9
20260502100802 20 158 3.2 12.9 0.00 0.00 0.00 65 1017.9
20260502100741 21 167 3.2 12.9 0.00 0.00 0.00 66 1017.9
20260502100205 20 277 3.2 11.3 0.00 0.00 0.00 65 1017.8
20260502091502 18 163 1.6 8.0 0.00 0.00 0.00 65 1018.0
20260502091202 18 160 1.6 4.8 0.00 0.00 0.00 67 1017.9
20260502091002 17 178 1.6 4.8 0.00 0.00 0.00 67 1017.9
20260502090702 17 140 0.0 6.4 0.00 0.00 0.00 67 1017.8
20260502090502 17 97 0.0 6.4 0.00 0.00 0.00 67 1017.8
20260502090201 17 96 0.0 6.4 0.00 0.00 0.00 67 1017.8
20260502071502 14 177 0.0 4.8 0.00 0.00 0.00 63 1018.0
20260502071202 14 178 1.6 4.8 0.00 0.00 0.00 63 1018.0
20260502071003 14 176 1.6 4.8 0.00 0.00 0.00 62 1018.0
20260502070704 14 177 0.0 4.8 0.00 0.00 0.00 63 1018.1
20260502070502 14 175 0.0 4.8 0.00 0.00 0.00 63 1018.1
20260502070202 14 175 1.6 6.4 0.00 0.00 0.00 63 1018.2
20260502070006 14 173 1.6 6.4 0.00 0.00 0.00 63 1018.2
20260502065702 13 173 1.6 11.3 0.00 0.00 0.00 63 1018.3
20260502065502 13 173 3.2 11.3 0.00 0.00 0.00 63 1018.2
20260502065203 13 179 3.2 11.3 0.00 0.00 0.00 63 1018.3
20260502065057 13 173 0.0 6.4 0.00 0.00 0.00 64 1018.2
20260502065040 13 163 1.6 11.3 0.00 0.00 0.00 63 1018.3
20260502064738 13 143 1.6 8.0 0.00 0.00 0.00 63 1018.3
20260502064258 13 173 1.6 6.4 0.00 0.00 0.00 63 1018.2
20260502064238 13 173 0.0 6.4 0.00 0.00 0.00 63 1018.1
20260502063702 13 169 1.6 8.0 0.00 0.00 0.00 64 1018.2
20260502063504 13 168 1.6 8.0 0.00 0.00 0.00 64 1018.1
20260502063203 13 169 1.6 8.0 0.00 0.00 0.00 64 1018.3
20260502063005 13 180 1.6 8.0 0.00 0.00 0.00 65 1018.3
20260502062703 13 134 1.6 8.0 0.00 0.00 0.00 65 1018.3
20260502062505 13 134 1.6 8.0 0.00 0.00 0.00 65 1018.2
20260502062201 13 169 1.6 8.0 0.00 0.00 0.00 66 1018.3
20260502062006 13 151 1.6 4.8 0.00 0.00 0.00 66 1018.2
20260502061504 13 143 1.6 8.0 0.00 0.00 0.00 66 1018.2
20260502061004 13 143 1.6 9.7 0.00 0.00 0.00 66 1018.2
20260502060801 13 109 3.2 9.7 0.00 0.00 0.00 67 1018.3
20260502060740 13 143 3.2 9.7 0.00 0.00 0.00 66 1018.3
20260502060203 13 148 3.2 11.3 0.00 0.00 0.00 67 1018.3
20260502060003 12 155 3.2 11.3 0.00 0.00 0.00 67 1018.3
20260502055702 12 153 3.2 11.3 0.00 0.00 0.00 67 1018.2
20260502055506 12 186 1.6 11.3 0.00 0.00 0.00 68 1018.2
20260502055259 12 140 0.0 4.8 0.00 0.00 0.00 69 1017.9
20260502055240 12 142 1.6 8.0 0.00 0.00 0.00 68 1018.0
20260502054702 12 136 0.0 3.2 0.00 0.00 0.00 69 1017.9
20260502054505 12 136 0.0 4.8 0.00 0.00 0.00 68 1017.9
20260502054203 11 137 0.0 4.8 0.00 0.00 0.00 69 1017.8
20260502054002 11 137 0.0 4.8 0.00 0.00 0.00 69 1017.9
20260502053703 11 137 1.6 4.8 0.00 0.00 0.00 69 1017.9
20260502053504 11 128 0.0 4.8 0.00 0.00 0.00 69 1017.9
20260502053259 11 128 1.6 4.8 0.00 0.00 0.00 69 1017.9
20260502053239 11 128 0.0 4.8 0.00 0.00 0.00 69 1017.9
20260502052702 11 127 1.6 8.0 0.00 0.00 0.00 69 1018.0
20260502052505 11 127 1.6 8.0 0.00 0.00 0.00 69 1018.0
20260502052202 11 134 1.6 8.0 0.00 0.00 0.00 69 1018.0
20260502052003 11 133 1.6 8.0 0.00 0.00 0.00 69 1018.0
20260502051702 11 155 1.6 6.4 0.00 0.00 0.00 69 1018.1
20260502051504 11 154 1.6 6.4 0.00 0.00 0.00 69 1018.1
20260502051257 10 148 1.6 8.0 0.00 0.00 0.00 69 1018.0
20260502051237 10 146 1.6 8.0 0.00 0.00 0.00 69 1018.0
20260502050703 10 146 1.6 8.0 0.00 0.00 0.00 69 1018.0
20260502050459 10 161 1.6 8.0 0.00 0.00 0.00 69 1018.1
20260502050202 10 150 1.6 4.8 0.00 0.00 0.00 69 1018.0
20260502045954 10 150 1.6 6.4 0.00 0.00 0.00 69 1018.0
20260502045703 10 153 1.6 8.0 0.00 0.00 0.00 68 1018.1
20260502045452 10 150 1.6 8.0 0.00 0.00 0.00 68 1018.1
20260502045202 10 145 1.6 8.0 0.00 0.00 0.00 68 1018.1
20260502044949 10 153 3.2 8.0 0.00 0.00 0.00 67 1018.1
20260502044702 10 158 3.2 9.7 0.00 0.00 0.00 67 1018.0
20260502044441 10 165 3.2 9.7 0.00 0.00 0.00 67 1018.1
20260502044323 10 157 1.6 8.0 0.00 0.00 0.00 67 1017.9
20260502044257 10 167 3.2 9.7 0.00 0.00 0.00 67 1018.1
20260502044011 10 165 3.2 9.7 0.00 0.00 0.00 67 1018.1
20260502043713 10 134 1.6 9.7 0.00 0.00 0.00 67 1018.0
20260502043203 10 158 1.6 8.0 0.00 0.00 0.00 67 1017.9
20260502042931 10 156 1.6 8.0 0.00 0.00 0.00 67 1017.8
20260502042704 10 147 0.0 4.8 0.00 0.00 0.00 67 1017.8
20260502042520 10 136 1.6 6.4 0.00 0.00 0.00 67 1017.9
20260502042504 10 144 0.0 4.8 0.00 0.00 0.00 67 1017.8
20260502042216 10 144 1.6 6.4 0.00 0.00 0.00 67 1017.8
20260502041702 10 136 1.6 6.4 0.00 0.00 0.00 67 1017.9
20260502041432 10 149 1.6 6.4 0.00 0.00 0.00 67 1017.8
20260502041202 10 154 0.0 6.4 0.00 0.00 0.00 67 1017.9
20260502040930 10 144 0.0 6.4 0.00 0.00 0.00 67 1017.9
20260502040703 10 142 0.0 6.4 0.00 0.00 0.00 67 1017.9
20260502040434 10 134 0.0 4.8 0.00 0.00 0.00 66 1017.9
20260502040203 10 133 0.0 4.8 0.00 0.00 0.00 66 1018.0
20260502035937 10 147 0.0 6.4 0.00 0.00 0.00 66 1018.1
20260502035723 11 150 1.6 6.4 0.00 0.00 0.00 66 1018.1
20260502035713 11 149 0.0 6.4 0.00 0.00 0.00 66 1018.0
20260502035202 11 158 1.6 6.4 0.00 0.00 0.00 66 1018.0
20260502034934 11 159 1.6 6.4 0.00 0.00 0.00 66 1018.1
20260502034704 11 159 1.6 6.4 0.00 0.00 0.00 66 1018.1
20260502034434 11 131 0.0 3.2 0.00 0.00 0.00 66 1018.1
20260502034204 11 131 0.0 4.8 0.00 0.00 0.00 66 1018.1
20260502033932 11 131 0.0 4.8 0.00 0.00 0.00 66 1018.1
20260502033703 11 131 0.0 6.4 0.00 0.00 0.00 66 1018.2
20260502033524 11 111 1.6 6.4 0.00 0.00 0.00 66 1018.2
20260502033505 11 140 1.6 6.4 0.00 0.00 0.00 66 1018.2
20260502033216 11 139 1.6 6.4 0.00 0.00 0.00 66 1018.2
20260502032703 11 147 1.6 6.4 0.00 0.00 0.00 66 1018.2
20260502032432 11 157 0.0 6.4 0.00 0.00 0.00 66 1018.3
20260502032202 11 158 0.0 6.4 0.00 0.00 0.00 66 1018.3
20260502031928 11 159 0.0 6.4 0.00 0.00 0.00 66 1018.3
20260502031703 11 158 0.0 6.4 0.00 0.00 0.00 66 1018.4
20260502031420 11 159 0.0 6.4 0.00 0.00 0.00 65 1018.4
20260502031203 11 159 1.6 6.4 0.00 0.00 0.00 65 1018.4
20260502030908 11 163 1.6 6.4 0.00 0.00 0.00 65 1018.4
20260502030702 11 163 1.6 4.8 0.00 0.00 0.00 65 1018.4
20260502030406 11 134 1.6 4.8 0.00 0.00 0.00 65 1018.4
20260502030201 11 144 1.6 4.8 0.00 0.00 0.00 65 1018.4
20260502025904 11 135 1.6 4.8 0.00 0.00 0.00 65 1018.5
20260502025705 11 137 1.6 4.8 0.00 0.00 0.00 65 1018.5
20260502025405 11 130 1.6 8.0 0.00 0.00 0.00 65 1018.5
20260502025201 11 130 1.6 8.0 0.00 0.00 0.00 65 1018.5
20260502024903 11 128 1.6 8.0 0.00 0.00 0.00 65 1018.6
20260502024703 11 129 1.6 8.0 0.00 0.00 0.00 65 1018.5
20260502024654 11 142 1.6 8.0 0.00 0.00 0.00 65 1018.6
20260502024203 11 148 1.6 6.4 0.00 0.00 0.00 64 1018.5
20260502024148 11 143 1.6 4.8 0.00 0.00 0.00 64 1018.5
20260502023702 11 142 1.6 4.8 0.00 0.00 0.00 64 1018.5
20260502023402 11 142 1.6 4.8 0.00 0.00 0.00 64 1018.5
20260502023206 11 142 1.6 4.8 0.00 0.00 0.00 64 1018.5
20260502022905 11 142 0.0 4.8 0.00 0.00 0.00 63 1018.6
20260502022702 11 142 0.0 3.2 0.00 0.00 0.00 63 1018.6
20260502022402 11 142 0.0 3.2 0.00 0.00 0.00 63 1018.6
20260502022202 11 140 0.0 3.2 0.00 0.00 0.00 63 1018.6
20260502021905 11 140 0.0 3.2 0.00 0.00 0.00 63 1018.6
20260502021702 11 140 0.0 3.2 0.00 0.00 0.00 63 1018.7